,,PA_Meas_PMT16A,,PR_Meas_QMR101_102,,RH_Meas_QMH101,,SR_Meas_QMS101,,TA_Meas_QMH101,,GenWind,,GenWind,
time,status,PA,status,PR,status,RH,status,SR,status,TA,status,DirAvg,status,SpdAvg,
2015-12-10, 07:09:04,VALID,918.066,VALID,0,VALID,101.895,VALID,160.517,VALID,20.6795,VALID,178,VALID,0,
2015-12-10, 07:13:04,VALID,918.12,VALID,0,VALID,101.895,VALID,136.987,VALID,20.756,VALID,180,VALID,0,
2015-12-10, 07:25:04,VALID,918.266,VALID,0,VALID,101.978,VALID,184.906,VALID,20.6585,VALID,141,VALID,0,
2015-12-10, 07:26:04,VALID,918.271,VALID,0,VALID,101.971,VALID,204.031,VALID,20.7755,VALID,141,VALID,0,
2015-12-10, 07:27:04,VALID,918.305,VALID,0,VALID,101.917,VALID,180.501,VALID,20.8714,VALID,143,VALID,0,
2015-12-10, 07:48:04,VALID,918.646,VALID,0,VALID,102.238,VALID,131.293,VALID,20.9105,VALID,164,VALID,0,
2015-12-10, 07:49:04,VALID,918.633,VALID,0,VALID,102.245,VALID,125.062,VALID,20.9495,VALID,164,VALID,0,
2015-12-10, 07:50:04,VALID,918.686,VALID,0,VALID,102.253,VALID,127.533,VALID,21.008,VALID,163,VALID,0,
2015-12-10, 07:51:04,VALID,918.719,VALID,0,VALID,102.283,VALID,123.45,VALID,21.0275,VALID,163,VALID,0,
2015-12-10, 07:52:04,VALID,918.753,VALID,0,VALID,102.283,VALID,111.846,VALID,21.0665,VALID,163,VALID,0,
2015-12-10, 08:13:05,INVALID - VALUE NOT AVAILABLE,0,INVALID - VALUE NOT AVAILABLE,0,INVALID - VALUE NOT AVAILABLE,0,INVALID - VALUE NOT AVAILABLE,0,INVALID - VALUE NOT AVAILABLE,0,INVALID,360,INVALID,0,
2015-12-10, 08:15:04,VALID,919.05,VALID,0,VALID,102.939,VALID,244.214,VALID,21.3022,VALID,169,VALID,0,
2015-12-10, 08:16:04,VALID,919.044,VALID,0,VALID,102.969,VALID,182.435,VALID,21.3998,VALID,169,VALID,0,
2015-12-10, 08:18:04,VALID,919.027,VALID,0,VALID,103.16,VALID,112.061,VALID,21.4762,VALID,163,VALID,0,
2015-12-10, 08:19:04,VALID,919.055,VALID,0,VALID,103.297,VALID,173.625,VALID,21.4567,VALID,164,VALID,0,
2015-12-10, 08:20:04,VALID,919.066,VALID,0,VALID,103.244,VALID,313.943,VALID,21.5932,VALID,160,VALID,0,
2015-12-10, 08:21:04,VALID,919.068,VALID,0,VALID,103.213,VALID,153.748,VALID,21.7493,VALID,160,VALID,0,
2015-12-10, 08:22:04,VALID,919.056,VALID,0,VALID,103.343,VALID,221.436,VALID,21.8485,VALID,160,VALID,0,
2015-12-10, 08:23:04,VALID,919.06,VALID,0,VALID,103.343,VALID,94.6557,VALID,22.003,VALID,160,VALID,0,
2015-12-10, 08:24:04,VALID,919.054,VALID,0,VALID,103.45,VALID,83.5892,VALID,22.081,VALID,160,VALID,0,
2015-12-10, 08:25:04,VALID,919.06,VALID,0,VALID,103.595,VALID,79.5065,VALID,22.1396,VALID,165,VALID,0,
2015-12-10, 08:26:04,VALID,919.051,VALID,0,VALID,103.724,VALID,77.7874,VALID,22.1396,VALID,165,VALID,0,
2015-12-10, 08:27:04,VALID,919.045,VALID,0,VALID,103.831,VALID,263.768,VALID,22.1964,VALID,165,VALID,0,
2015-12-10, 08:28:04,VALID,919.042,VALID,0,VALID,103.953,VALID,137.632,VALID,22.255,VALID,165,VALID,0,
2015-12-10, 08:29:04,VALID,919.044,VALID,0,VALID,103.938,VALID,117.541,VALID,22.3933,VALID,165,VALID,0,
2015-12-10, 08:30:04,VALID,919.079,VALID,0,VALID,104,VALID,86.1678,VALID,22.3542,VALID,165,VALID,0,
2015-12-10, 08:31:04,VALID,919.069,VALID,0,VALID,104,VALID,87.2422,VALID,22.3933,VALID,165,VALID,0,
2015-12-10, 08:32:04,VALID,919.072,VALID,0,VALID,103.922,VALID,94.4408,VALID,22.3347,VALID,151,VALID,0,
2015-12-10, 08:33:04,VALID,919.08,VALID,0,VALID,103.572,VALID,332.638,VALID,22.2974,VALID,150,VALID,0,
2015-12-10, 08:34:04,VALID,919.109,VALID,0,VALID,103.351,VALID,289.876,VALID,22.4713,VALID,151,VALID,0,
2015-12-10, 08:35:04,VALID,919.121,VALID,0,VALID,103.305,VALID,177.17,VALID,22.7055,VALID,151,VALID,0,
2015-12-10, 08:36:04,VALID,919.132,VALID,0,VALID,103.069,VALID,135.054,VALID,22.8812,VALID,151,VALID,0,
2015-12-10, 08:37:04,VALID,919.177,VALID,0,VALID,100.995,VALID,432.773,VALID,22.9787,VALID,168,VALID,0,
2015-12-10, 08:38:04,VALID,919.183,VALID,0,VALID,100.217,VALID,440.831,VALID,23.1349,VALID,200,VALID,0,
2015-12-10, 08:39:04,VALID,919.203,VALID,0,VALID,99.7905,VALID,452.005,VALID,23.3301,VALID,182,VALID,0,
2015-12-10, 08:40:04,VALID,919.207,VALID,0,VALID,98.0448,VALID,449.426,VALID,23.4454,VALID,158,VALID,0,
2015-12-10, 08:41:04,VALID,919.209,VALID,0,VALID,97.9304,VALID,262.479,VALID,23.6424,VALID,89,VALID,0,
2015-12-10, 08:42:04,VALID,919.25,VALID,0,VALID,97.6788,VALID,453.724,VALID,23.7205,VALID,98,VALID,0,
2015-12-10, 08:43:04,VALID,919.238,VALID,0,VALID,98.5327,VALID,461.137,VALID,23.8962,VALID,118,VALID,0,
2015-12-10, 08:44:04,VALID,919.255,VALID,0,VALID,92.4949,VALID,466.617,VALID,23.953,VALID,198,VALID,0,
2015-12-10, 08:45:04,VALID,919.245,VALID,0,VALID,83.8042,VALID,476.072,VALID,24.0524,VALID,198,VALID,0,
2015-12-10, 08:46:04,VALID,919.28,VALID,0,VALID,82.4549,VALID,483.163,VALID,24.0134,VALID,226,VALID,0,
2015-12-10, 08:47:04,VALID,919.252,VALID,0,VALID,82.8513,VALID,484.237,VALID,24.0896,VALID,225,VALID,0,
2015-12-10, 08:48:04,VALID,919.278,VALID,0,VALID,85.0087,VALID,402.045,VALID,24.2477,VALID,225,VALID,0,
2015-12-10, 08:49:04,VALID,919.276,VALID,0,VALID,84.0482,VALID,179.319,VALID,24.4216,VALID,287,VALID,0,
2015-12-10, 08:50:04,VALID,919.272,VALID,0,VALID,85.0011,VALID,309.431,VALID,24.3044,VALID,333,VALID,0,
2015-12-10, 08:51:04,VALID,919.293,VALID,0,VALID,82.554,VALID,211.659,VALID,24.0878,VALID,321,VALID,0,
2015-12-10, 08:52:04,VALID,919.295,VALID,0,VALID,83.6746,VALID,224.23,VALID,23.9335,VALID,318,VALID,0,
2015-12-10, 08:53:04,VALID,919.328,VALID,0,VALID,86.6935,VALID,111.846,VALID,23.8145,VALID,355,VALID,0,
2015-12-10, 08:54:04,VALID,919.337,VALID,0,VALID,93.3945,VALID,128.392,VALID,23.7968,VALID,349,VALID,0,
2015-12-10, 08:55:04,VALID,919.363,VALID,0,VALID,84.9172,VALID,122.59,VALID,23.7169,VALID,349,VALID,0,
2015-12-10, 08:56:04,VALID,919.35,VALID,0,VALID,85.0545,VALID,466.402,VALID,23.6193,VALID,4,VALID,0,
2015-12-10, 08:57:04,VALID,919.357,VALID,0,VALID,87.8599,VALID,353.052,VALID,23.6602,VALID,339,VALID,0,
2015-12-10, 08:58:04,VALID,919.356,VALID,0,VALID,87.6617,VALID,121.409,VALID,23.6992,VALID,346,VALID,0,
2015-12-10, 08:59:04,VALID,919.368,VALID,0,VALID,92.6855,VALID,108.945,VALID,23.7382,VALID,15,VALID,0,
2015-12-10, 09:01:04,VALID,919.373,VALID,0,VALID,85.672,VALID,131.508,VALID,23.6193,VALID,342,VALID,0,
2015-12-10, 09:02:04,VALID,919.376,VALID,0,VALID,86.4038,VALID,307.926,VALID,23.6016,VALID,360,VALID,0,
2015-12-10, 09:03:04,VALID,919.376,VALID,0,VALID,83.8804,VALID,251.305,VALID,23.5412,VALID,1,VALID,0.523438,
2015-12-10, 09:04:04,VALID,919.395,VALID,0,VALID,88.6908,VALID,180.931,VALID,23.7187,VALID,30,VALID,0,
2015-12-10, 09:05:04,VALID,919.383,VALID,0,VALID,82.6759,VALID,129.896,VALID,23.8536,VALID,46,VALID,0,
2015-12-10, 09:06:04,VALID,919.351,VALID,0,VALID,84.4065,VALID,98.631,VALID,24.0311,VALID,52,VALID,0,
2015-12-10, 09:07:04,VALID,919.357,VALID,0,VALID,81.6544,VALID,74.9939,VALID,24.1659,VALID,24,VALID,0,
2015-12-10, 09:08:04,VALID,919.365,VALID,0,VALID,83.8804,VALID,61.4563,VALID,24.3611,VALID,24,VALID,0,
2015-12-10, 09:09:04,VALID,919.335,VALID,0,VALID,79.7714,VALID,55.6545,VALID,24.5954,VALID,19,VALID,0,
2015-12-10, 09:10:04,VALID,919.329,VALID,0,VALID,80.1602,VALID,53.0759,VALID,24.6716,VALID,22,VALID,0.671484,
2015-12-10, 09:11:04,VALID,919.356,VALID,0,VALID,78.8642,VALID,53.3983,VALID,24.6912,VALID,350,VALID,0,
2015-12-10, 09:12:04,VALID,919.332,VALID,0,VALID,80.8158,VALID,57.3736,VALID,24.8102,VALID,22,VALID,0,
2015-12-10, 09:13:04,VALID,919.329,VALID,0,VALID,78.6203,VALID,81.6553,VALID,24.8864,VALID,9,VALID,1.54844,
2015-12-10, 09:14:04,VALID,919.331,VALID,0,VALID,76.9813,VALID,52.6462,VALID,24.8278,VALID,2,VALID,1.4168,
2015-12-10, 09:15:04,VALID,919.33,VALID,0,VALID,78.1476,VALID,50.7122,VALID,24.7888,VALID,10,VALID,0.0554687,
2015-12-10, 09:16:04,VALID,919.31,VALID,0,VALID,80.549,VALID,48.456,VALID,24.8297,VALID,20,VALID,0,
2015-12-10, 09:17:04,VALID,919.344,VALID,0,VALID,79.9544,VALID,47.0592,VALID,24.9664,VALID,349,VALID,0.298828,
2015-12-10, 09:18:04,VALID,919.334,VALID,0,VALID,78.1248,VALID,46.9518,VALID,24.9469,VALID,351,VALID,0,
2015-12-10, 09:19:04,VALID,919.354,VALID,0,VALID,78.1095,VALID,46.3071,VALID,25.0445,VALID,348,VALID,0,
2015-12-10, 09:20:04,VALID,919.34,VALID,0,VALID,77.8579,VALID,46.4146,VALID,25.2007,VALID,23,VALID,0.0839844,
2015-12-10, 09:21:04,VALID,919.359,VALID,0,VALID,75.853,VALID,51.5718,VALID,25.396,VALID,41,VALID,0,
2015-12-10, 09:22:04,VALID,919.364,VALID,0,VALID,74.1758,VALID,57.6959,VALID,25.6109,VALID,111,VALID,0,
2015-12-10, 09:23:04,VALID,919.379,VALID,0,VALID,73.1924,VALID,66.5061,VALID,25.5913,VALID,248,VALID,0,
2015-12-10, 09:24:04,VALID,919.387,VALID,0,VALID,74.0157,VALID,73.2749,VALID,25.5327,VALID,248,VALID,0,
2015-12-10, 09:25:04,VALID,919.387,VALID,0,VALID,74.2826,VALID,80.2585,VALID,25.5132,VALID,280,VALID,0,
2015-12-10, 09:26:04,VALID,919.363,VALID,0,VALID,71.4238,VALID,94.5482,VALID,25.5523,VALID,302,VALID,0,
2015-12-10, 09:27:04,VALID,919.377,VALID,0,VALID,74.2749,VALID,125.062,VALID,25.5523,VALID,299,VALID,0,
2015-12-10, 09:28:04,VALID,919.374,VALID,0,VALID,76.0817,VALID,176.633,VALID,25.5698,VALID,262,VALID,0,
2015-12-10, 09:29:04,VALID,919.353,VALID,0,VALID,75.4794,VALID,247.652,VALID,25.4527,VALID,262,VALID,0,
2015-12-10, 09:30:04,VALID,919.353,VALID,0,VALID,73.8709,VALID,333.068,VALID,25.4351,VALID,261,VALID,0,
2015-12-10, 09:31:04,VALID,919.333,VALID,0,VALID,74.7781,VALID,423.103,VALID,25.4527,VALID,262,VALID,0,
2015-12-10, 09:32:04,VALID,919.378,VALID,0,VALID,73.5888,VALID,494.767,VALID,25.316,VALID,260,VALID,0,
2015-12-10, 09:33:04,VALID,919.375,VALID,0,VALID,73.8099,VALID,554.181,VALID,25.1812,VALID,253,VALID,0,
2015-12-10, 09:34:04,VALID,919.371,VALID,0,VALID,74.3817,VALID,587.273,VALID,25.1031,VALID,253,VALID,0,
2015-12-10, 09:35:04,VALID,919.338,VALID,0,VALID,75.1745,VALID,603.39,VALID,25.0855,VALID,253,VALID,0,
2015-12-10, 09:36:04,VALID,919.37,VALID,0,VALID,74.1225,VALID,610.051,VALID,25.064,VALID,251,VALID,0,
2015-12-10, 09:37:04,VALID,919.33,VALID,0,VALID,76.0131,VALID,609.729,VALID,25.1226,VALID,267,VALID,0,
2015-12-10, 09:38:04,VALID,919.368,VALID,0,VALID,75.2736,VALID,615.96,VALID,25.2398,VALID,261,VALID,0,
2015-12-10, 09:39:04,VALID,919.342,VALID,0,VALID,75.8759,VALID,623.481,VALID,25.4741,VALID,261,VALID,0,
2015-12-10, 09:40:04,VALID,919.341,VALID,0,VALID,73.5278,VALID,630.68,VALID,25.7085,VALID,301,VALID,0.289453,
2015-12-10, 09:41:04,VALID,919.357,VALID,0,VALID,73.5431,VALID,642.606,VALID,25.7066,VALID,304,VALID,0,
2015-12-10, 09:42:04,VALID,919.357,VALID,0,VALID,70.913,VALID,660.763,VALID,25.8648,VALID,299,VALID,0,
2015-12-10, 09:43:04,VALID,919.345,VALID,0,VALID,70.1354,VALID,683.541,VALID,25.9214,VALID,298,VALID,0,
2015-12-10, 09:44:04,VALID,919.359,VALID,0,VALID,69.0834,VALID,708.574,VALID,25.9604,VALID,266,VALID,0,
2015-12-10, 09:45:04,VALID,919.365,VALID,0,VALID,69.7466,VALID,736.939,VALID,26.0386,VALID,275,VALID,0,
2015-12-10, 09:46:04,VALID,919.336,VALID,0,VALID,68.7251,VALID,763.584,VALID,26.0386,VALID,281,VALID,0.0101562,
2015-12-10, 09:47:04,VALID,919.35,VALID,0,VALID,68.8547,VALID,793.453,VALID,25.9995,VALID,275,VALID,0.107813,
2015-12-10, 09:48:04,VALID,919.349,VALID,0,VALID,70.8901,VALID,814.726,VALID,26.1167,VALID,359,VALID,0,
2015-12-10, 09:49:04,VALID,919.339,VALID,0,VALID,70.4785,VALID,842.768,VALID,26.5464,VALID,360,VALID,0,
2015-12-10, 09:50:04,VALID,919.333,VALID,0,VALID,69.4722,VALID,455.658,VALID,26.8785,VALID,303,VALID,0.472656,
2015-12-10, 09:51:04,VALID,919.34,VALID,0,VALID,68.3439,VALID,524.313,VALID,27.0348,VALID,348,VALID,0.0128906,
2015-12-10, 09:52:04,VALID,919.305,VALID,0,VALID,67.7645,VALID,434.814,VALID,27.113,VALID,6,VALID,0,
2015-12-10, 09:53:04,VALID,919.353,VALID,0,VALID,68.039,VALID,237.982,VALID,27.1325,VALID,291,VALID,0,
2015-12-10, 09:54:04,VALID,919.35,VALID,0,VALID,67.7036,VALID,213.593,VALID,26.6616,VALID,254,VALID,0.00742187,
2015-12-10, 09:55:04,VALID,919.333,VALID,0,VALID,70.6843,VALID,209.295,VALID,26.1362,VALID,251,VALID,0,
2015-12-10, 09:56:04,VALID,919.336,VALID,0,VALID,72.27,VALID,219.287,VALID,25.8433,VALID,259,VALID,0,
2015-12-10, 09:57:04,VALID,919.351,VALID,0,VALID,73.4669,VALID,230.891,VALID,25.5894,VALID,246,VALID,0,
2015-12-10, 09:58:04,VALID,919.335,VALID,0,VALID,73.6727,VALID,240.776,VALID,25.4917,VALID,246,VALID,0,
2015-12-10, 09:59:04,VALID,919.349,VALID,0,VALID,75.4413,VALID,256.032,VALID,25.4917,VALID,246,VALID,0,
2015-12-10, 10:00:04,VALID,919.358,VALID,0,VALID,75.4108,VALID,247.867,VALID,25.5308,VALID,246,VALID,0,
2015-12-10, 10:01:04,VALID,919.347,VALID,0,VALID,74.7552,VALID,255.065,VALID,25.4703,VALID,272,VALID,0,
2015-12-10, 10:02:04,VALID,919.352,VALID,0,VALID,76.0131,VALID,344.564,VALID,25.5289,VALID,272,VALID,0,
2015-12-10, 10:03:04,VALID,919.382,VALID,0,VALID,73.1543,VALID,815.371,VALID,25.6089,VALID,266,VALID,0,
2015-12-10, 10:04:04,VALID,919.363,VALID,0,VALID,70.974,VALID,825.685,VALID,25.7046,VALID,330,VALID,0,
2015-12-10, 10:05:04,VALID,919.388,VALID,0,VALID,71.9955,VALID,844.38,VALID,25.98,VALID,19,VALID,0.6,
2015-12-10, 10:06:04,VALID,919.382,VALID,0,VALID,70.3565,VALID,726.839,VALID,26.2905,VALID,293,VALID,0.128125,
2015-12-10, 10:07:04,VALID,919.407,VALID,0,VALID,70.0744,VALID,300.298,VALID,26.5054,VALID,344,VALID,0,
2015-12-10, 10:08:04,VALID,919.393,VALID,0,VALID,69.8305,VALID,345.316,VALID,26.6636,VALID,7,VALID,0.167578,
2015-12-10, 10:09:04,VALID,919.394,VALID,0,VALID,69.4569,VALID,371.639,VALID,26.5444,VALID,350,VALID,0,
2015-12-10, 10:10:04,VALID,919.411,VALID,0,VALID,72.3233,VALID,859.314,VALID,26.5054,VALID,2,VALID,0.246875,
2015-12-10, 10:11:04,VALID,919.399,VALID,0,VALID,67.9856,VALID,824.503,VALID,26.5054,VALID,250,VALID,0.618359,
2015-12-10, 10:12:04,VALID,919.367,VALID,0,VALID,72.1023,VALID,789.692,VALID,26.2534,VALID,267,VALID,0,
2015-12-10, 10:13:04,VALID,919.371,VALID,0,VALID,72.4987,VALID,758.749,VALID,26.312,VALID,277,VALID,0,
2015-12-10, 10:14:04,VALID,919.355,VALID,0,VALID,68.2067,VALID,740.377,VALID,26.3706,VALID,275,VALID,0,
2015-12-10, 10:15:04,VALID,919.349,VALID,0,VALID,70.6386,VALID,730.707,VALID,26.31,VALID,239,VALID,0,
2015-12-10, 10:16:04,VALID,919.386,VALID,0,VALID,70.0439,VALID,725.98,VALID,26.1928,VALID,216,VALID,0.0949219,
2015-12-10, 10:17:04,VALID,919.364,VALID,0,VALID,70.9283,VALID,725.658,VALID,26.3686,VALID,307,VALID,0.00195313,
2015-12-10, 10:18:04,VALID,919.363,VALID,0,VALID,70.4632,VALID,719.963,VALID,26.6421,VALID,314,VALID,0,
2015-12-10, 10:19:04,VALID,919.349,VALID,0,VALID,67.2157,VALID,720.715,VALID,26.857,VALID,298,VALID,0,
2015-12-10, 10:20:04,VALID,919.351,VALID,0,VALID,68.9386,VALID,721.682,VALID,27.0914,VALID,20,VALID,0.285937,
2015-12-10, 10:21:04,VALID,919.36,VALID,0,VALID,67.5892,VALID,721.897,VALID,27.2281,VALID,23,VALID,0,
2015-12-10, 10:22:04,VALID,919.337,VALID,0,VALID,68.3287,VALID,724.261,VALID,27.2086,VALID,15,VALID,1.00273,
2015-12-10, 10:23:04,VALID,919.345,VALID,0,VALID,68.5879,VALID,728.666,VALID,27.0914,VALID,12,VALID,1.04609,
2015-12-10, 10:24:04,VALID,919.392,VALID,0,VALID,70.4556,VALID,738.013,VALID,26.9351,VALID,318,VALID,0.00195313,
2015-12-10, 10:25:04,VALID,919.389,VALID,0,VALID,68.3211,VALID,742.418,VALID,27.0328,VALID,330,VALID,0,
2015-12-10, 10:26:04,VALID,919.384,VALID,0,VALID,69.3273,VALID,86.4901,VALID,27.1305,VALID,313,VALID,0,
2015-12-10, 10:27:04,VALID,919.372,VALID,0,VALID,68.4811,VALID,751.121,VALID,27.2847,VALID,351,VALID,0,
2015-12-10, 10:28:04,VALID,919.393,VALID,0,VALID,66.6896,VALID,763.262,VALID,27.4235,VALID,270,VALID,0,
2015-12-10, 10:29:04,VALID,919.395,VALID,0,VALID,70.0821,VALID,779.593,VALID,27.2672,VALID,308,VALID,0,
2015-12-10, 10:30:04,VALID,919.391,VALID,0,VALID,68.9386,VALID,810.751,VALID,27.404,VALID,347,VALID,0,
2015-12-10, 10:31:04,VALID,919.387,VALID,0,VALID,68.6717,VALID,842.339,VALID,27.2065,VALID,292,VALID,0.0195313,
2015-12-10, 10:32:04,VALID,919.372,VALID,0,VALID,65.2336,VALID,859.959,VALID,27.0893,VALID,321,VALID,0.137891,
2015-12-10, 10:33:04,VALID,919.382,VALID,0,VALID,68.5421,VALID,885.745,VALID,26.894,VALID,24,VALID,0.333984,
2015-12-10, 10:34:04,VALID,919.339,VALID,0,VALID,67.9323,VALID,918.085,VALID,26.8549,VALID,34,VALID,1.90469,
2015-12-10, 10:35:04,VALID,919.35,VALID,0,VALID,70.7605,VALID,949.135,VALID,26.9721,VALID,14,VALID,0.796484,
2015-12-10, 10:36:04,VALID,919.36,VALID,0,VALID,70.1735,VALID,986.632,VALID,27.2261,VALID,353,VALID,0.00234375,
2015-12-10, 10:37:04,VALID,919.337,VALID,0,VALID,66.2551,VALID,962.995,VALID,27.3063,VALID,290,VALID,0,
2015-12-10, 10:38:04,VALID,919.32,VALID,0,VALID,69.396,VALID,279.884,VALID,27.5212,VALID,2,VALID,0,
2015-12-10, 10:39:04,VALID,919.33,VALID,0,VALID,65.9959,VALID,939.465,VALID,27.8339,VALID,282,VALID,0,
2015-12-10, 10:40:04,VALID,919.303,VALID,0,VALID,64.1739,VALID,931.085,VALID,28.0271,VALID,33,VALID,0.664844,
2015-12-10, 10:41:04,VALID,919.316,VALID,0,VALID,65.6681,VALID,913.357,VALID,27.8925,VALID,28,VALID,0,
2015-12-10, 10:42:04,VALID,919.345,VALID,0,VALID,64.8067,VALID,582.224,VALID,28.0097,VALID,150,VALID,0,
2015-12-10, 10:43:04,VALID,919.334,VALID,0,VALID,67.4749,VALID,887.142,VALID,28.0662,VALID,187,VALID,0,
2015-12-10, 10:44:04,VALID,919.353,VALID,0,VALID,64.2044,VALID,876.72,VALID,28.3029,VALID,157,VALID,0,
2015-12-10, 10:45:04,VALID,919.331,VALID,0,VALID,66.3085,VALID,398.607,VALID,28.381,VALID,112,VALID,0,
2015-12-10, 10:46:04,VALID,919.366,VALID,0,VALID,62.6416,VALID,535.809,VALID,28.3007,VALID,182,VALID,0.10625,
2015-12-10, 10:47:04,VALID,919.356,VALID,0,VALID,66.1712,VALID,840.727,VALID,28.0097,VALID,344,VALID,0,
2015-12-10, 10:48:04,VALID,919.353,VALID,0,VALID,65.2183,VALID,815.586,VALID,28.203,VALID,37,VALID,0.205859,
2015-12-10, 10:49:04,VALID,919.33,VALID,0,VALID,66.1865,VALID,814.297,VALID,28.4375,VALID,8,VALID,0,
2015-12-10, 10:50:04,VALID,919.329,VALID,0,VALID,64.2502,VALID,817.52,VALID,28.418,VALID,304,VALID,0.0507813,
2015-12-10, 10:51:04,VALID,919.327,VALID,0,VALID,65.8206,VALID,155.467,VALID,28.2421,VALID,338,VALID,0.151953,
2015-12-10, 10:52:04,VALID,919.321,VALID,0,VALID,64.5856,VALID,198.336,VALID,28.0662,VALID,27,VALID,0.267578,
2015-12-10, 10:53:04,VALID,919.31,VALID,0,VALID,67.2766,VALID,900.894,VALID,27.8708,VALID,349,VALID,0.0972656,
2015-12-10, 10:54:04,VALID,919.298,VALID,0,VALID,64.5093,VALID,234.222,VALID,27.9099,VALID,19,VALID,0.276953,
2015-12-10, 10:55:04,VALID,919.26,VALID,0,VALID,65.165,VALID,242.602,VALID,27.8122,VALID,16,VALID,0.941016,
2015-12-10, 10:56:04,VALID,919.293,VALID,0,VALID,67.9246,VALID,224.874,VALID,27.5191,VALID,18,VALID,1.08359,
2015-12-10, 10:57:04,VALID,919.27,VALID,0,VALID,68.8699,VALID,197.262,VALID,27.4626,VALID,25,VALID,0.0121094,
2015-12-10, 10:58:04,VALID,919.307,VALID,0,VALID,67.4062,VALID,249.908,VALID,27.3824,VALID,24,VALID,0,
2015-12-10, 10:59:04,VALID,919.275,VALID,0,VALID,65.813,VALID,842.768,VALID,27.187,VALID,337,VALID,0,
2015-12-10, 11:00:04,VALID,919.246,VALID,0,VALID,67.0174,VALID,146.227,VALID,27.2847,VALID,40,VALID,0,
2015-12-10, 11:01:04,VALID,919.241,VALID,0,VALID,66.7125,VALID,805.486,VALID,27.4214,VALID,297,VALID,0,
2015-12-10, 11:02:04,VALID,919.274,VALID,0,VALID,64.86,VALID,789.8,VALID,27.6168,VALID,292,VALID,0,
2015-12-10, 11:03:04,VALID,919.22,VALID,0,VALID,65.4547,VALID,787.436,VALID,27.6754,VALID,282,VALID,0.326562,
2015-12-10, 11:04:04,VALID,919.272,VALID,0,VALID,67.7264,VALID,797.965,VALID,27.6168,VALID,275,VALID,0.216016,
2015-12-10, 11:05:04,VALID,919.266,VALID,0,VALID,65.9578,VALID,789.585,VALID,27.5582,VALID,304,VALID,0.239844,
2015-12-10, 11:06:04,VALID,919.29,VALID,0,VALID,64.9744,VALID,827.297,VALID,27.7145,VALID,336,VALID,0.009375,
2015-12-10, 11:07:04,VALID,919.294,VALID,0,VALID,63.3506,VALID,486.494,VALID,27.7536,VALID,303,VALID,1.07578,
2015-12-10, 11:08:04,VALID,919.29,VALID,0,VALID,64.9896,VALID,363.796,VALID,27.3608,VALID,259,VALID,0.412891,
2015-12-10, 11:09:04,VALID,919.275,VALID,0,VALID,66.5677,VALID,463.716,VALID,27.15,VALID,240,VALID,0,
2015-12-10, 11:10:04,VALID,919.273,VALID,0,VALID,67.0174,VALID,686.442,VALID,27.1479,VALID,233,VALID,0.155859,
2015-12-10, 11:11:04,VALID,919.246,VALID,0,VALID,66.4991,VALID,768.956,VALID,27.1695,VALID,246,VALID,1.16719,
2015-12-10, 11:12:04,VALID,919.224,VALID,0,VALID,67.0784,VALID,775.403,VALID,26.8374,VALID,237,VALID,0.678125,
2015-12-10, 11:13:04,VALID,919.235,VALID,0,VALID,67.2004,VALID,621.225,VALID,26.7788,VALID,217,VALID,0.388672,
2015-12-10, 11:14:04,VALID,919.227,VALID,0,VALID,68.5574,VALID,873.926,VALID,26.7984,VALID,233,VALID,1.11328,
2015-12-10, 11:15:04,VALID,919.238,VALID,0,VALID,70.1126,VALID,853.727,VALID,27.0112,VALID,303,VALID,0.0148437,
2015-12-10, 11:16:04,VALID,919.22,VALID,0,VALID,68.5574,VALID,838.148,VALID,27.3454,VALID,243,VALID,0.204688,
2015-12-10, 11:17:04,VALID,919.201,VALID,0,VALID,66.1408,VALID,844.595,VALID,27.5017,VALID,293,VALID,0.223438,
2015-12-10, 11:18:04,VALID,919.18,VALID,0,VALID,67.0098,VALID,838.148,VALID,27.4821,VALID,309,VALID,0.632813,
2015-12-10, 11:19:04,VALID,919.177,VALID,0,VALID,66.1408,VALID,826.437,VALID,27.6385,VALID,282,VALID,0.467969,
2015-12-10, 11:20:04,VALID,919.156,VALID,0,VALID,65.0125,VALID,806.776,VALID,27.7557,VALID,296,VALID,0.664453,
2015-12-10, 11:21:04,VALID,919.157,VALID,0,VALID,66.7583,VALID,805.594,VALID,27.6385,VALID,228,VALID,0.198047,
2015-12-10, 11:22:04,VALID,919.16,VALID,0,VALID,65.2031,VALID,805.594,VALID,27.7731,VALID,236,VALID,0.0789063,
2015-12-10, 11:23:04,VALID,919.15,VALID,0,VALID,64.1663,VALID,816.016,VALID,27.6364,VALID,222,VALID,0.0992187,
2015-12-10, 11:24:04,VALID,919.098,VALID,0,VALID,65.4928,VALID,832.024,VALID,27.6385,VALID,224,VALID,1.11992,
2015-12-10, 11:25:04,VALID,919.1,VALID,0,VALID,66.5829,VALID,848.355,VALID,27.6385,VALID,249,VALID,1.18867,
2015-12-10, 11:26:04,VALID,919.076,VALID,0,VALID,67.5282,VALID,876.075,VALID,27.6559,VALID,253,VALID,0,
2015-12-10, 11:27:04,VALID,919.105,VALID,0,VALID,65.4928,VALID,905.192,VALID,27.8122,VALID,281,VALID,0.180078,
2015-12-10, 11:28:04,VALID,919.048,VALID,0,VALID,66.0035,VALID,843.198,VALID,27.8513,VALID,215,VALID,0,
2015-12-10, 11:29:04,VALID,919.058,VALID,0,VALID,65.3708,VALID,918.085,VALID,27.9099,VALID,262,VALID,0,
2015-12-10, 11:30:04,VALID,919.06,VALID,0,VALID,66.4152,VALID,911.208,VALID,28.0293,VALID,261,VALID,0,
2015-12-10, 11:31:04,VALID,918.998,VALID,0,VALID,64.6694,VALID,658.937,VALID,28.0858,VALID,294,VALID,0.00585938,
2015-12-10, 11:32:04,VALID,919.016,VALID,0,VALID,65.9959,VALID,900.464,VALID,27.9099,VALID,262,VALID,1.25859,
2015-12-10, 11:33:04,VALID,919.015,VALID,0,VALID,66.2399,VALID,863.29,VALID,27.6168,VALID,230,VALID,1.04609,
2015-12-10, 11:34:04,VALID,919.002,VALID,0,VALID,67.4977,VALID,858.025,VALID,27.5756,VALID,290,VALID,0,
2015-12-10, 11:35:04,VALID,918.966,VALID,0,VALID,64.9439,VALID,852.438,VALID,27.48,VALID,230,VALID,1.46328,
2015-12-10, 11:36:04,VALID,918.983,VALID,0,VALID,65.9959,VALID,847.926,VALID,27.5777,VALID,219,VALID,0,
2015-12-10, 11:37:04,VALID,918.956,VALID,0,VALID,68.0847,VALID,850.289,VALID,27.8708,VALID,5,VALID,0.460938,
2015-12-10, 11:38:04,VALID,918.95,VALID,0,VALID,63.3735,VALID,853.405,VALID,28.0271,VALID,274,VALID,1.87266,
2015-12-10, 11:39:04,VALID,918.912,VALID,0,VALID,65.3251,VALID,851.256,VALID,27.7145,VALID,349,VALID,0.0148437,
2015-12-10, 11:40:04,VALID,918.865,VALID,0,VALID,66.1636,VALID,858.133,VALID,27.8122,VALID,20,VALID,0,
2015-12-10, 11:41:04,VALID,918.878,VALID,0,VALID,66.8497,VALID,865.653,VALID,28.0488,VALID,298,VALID,0,
2015-12-10, 11:42:04,VALID,918.842,VALID,0,VALID,63.2515,VALID,880.695,VALID,28.0879,VALID,271,VALID,1.94687,
2015-12-10, 11:43:04,VALID,918.819,VALID,0,VALID,64.4712,VALID,891.654,VALID,27.7166,VALID,256,VALID,0.242969,
2015-12-10, 11:44:04,VALID,918.824,VALID,0,VALID,65.5004,VALID,905.299,VALID,27.8143,VALID,271,VALID,0.13125,
2015-12-10, 11:45:04,VALID,918.77,VALID,0,VALID,67.9094,VALID,501.965,VALID,27.9316,VALID,273,VALID,0.55,
2015-12-10, 11:46:04,VALID,918.786,VALID,0,VALID,66.217,VALID,320.819,VALID,28.0097,VALID,306,VALID,0,
2015-12-10, 11:47:04,VALID,918.783,VALID,0,VALID,67.2538,VALID,272.256,VALID,28.1053,VALID,334,VALID,0.172656,